Theta_e
350 350 349 352 352 351 351 352 349 347 345 342 342 344 347 350 350 350 352 351 351 349 351 352 351 353 349 350 352 350 350 351 352 352 350 351 350 349 349 350 350 348 349
349 348 348 351 352 352 351 350 347 347 347 349 350 351 352 352 352 353 352 353 353 352 351 349 352 353 352 352 352 350 351 351 351 352 353 353 349 349 350 350 350 350 350
349 347 348 350 351 352 352 351 348 349 350 350 350 349 348 351 353 351 348 351 352 353 353 353 349 351 351 352 353 351 351 352 353 353 351 352 352 351 349 347 343 349 349
348 347 349 349 350 353 353 353 353 352 352 351 349 350 351 347 345 348 349 352 353 350 353 352 353 350 352 352 351 351 350 351 351 349 350 352 351 350 348 348 347 346 343
350 346 350 349 351 352 352 352 353 352 350 347 351 350 351 351 348 348 348 342 349 354 351 349 352 352 351 352 350 350 351 352 348 345 347 348 347 338 340 343 344 345 345
350 346 350 351 351 351 350 349 347 349 349 349 350 350 350 349 349 349 351 351 348 348 352 353 343 347 350 348 349 345 347 351 352 350 347 346 344 350 347 346 346 343 342
348 347 350 350 351 352 351 351 351 351 352 350 350 350 347 350 352 352 351 351 351 351 350 351 349 351 345 344 338 345 346 344 345 346 347 344 343 339 340 336 340 340 344
346 349 348 351 352 351 351 351 352 352 351 351 350 351 352 349 345 345 345 346 348 351 350 347 347 348 347 351 337 335 341 344 346 346 345 344 335 344 349 348 338 333 343
344 348 348 351 351 352 351 353 352 352 352 352 352 352 350 349 349 348 344 343 349 351 350 347 345 346 345 345 349 338 341 345 345 343 344 346 333 344 352 350 341 336 332
345 347 348 349 350 350 354 352 352 352 352 352 352 351 350 348 344 342 340 341 348 346 351 345 345 345 347 343 346 343 344 341 343 343 343 342 336 342 351 351 345 341 336
350 350 348 350 348 352 350 353 353 353 352 351 351 349 344 342 344 343 341 340 341 343 348 351 347 345 343 345 346 343 344 341 340 341 342 340 339 343 350 350 349 347 345
351 349 349 351 351 352 347 352 352 352 350 346 346 343 342 341 341 333 333 333 340 343 348 346 350 348 348 345 345 344 342 340 341 340 342 342 341 341 347 350 350 345 347
349 351 350 348 349 348 346 351 351 350 346 341 341 340 339 338 338 338 335 335 340 342 347 342 346 349 348 342 342 341 342 343 340 339 343 343 342 339 345 346 348 347 349
350 351 351 350 348 345 345 348 348 348 342 339 337 335 335 335 332 336 337 338 339 342 342 341 341 341 341 343 341 343 345 341 342 340 341 342 342 335 342 347 344 349 349
349 350 349 348 346 346 346 349 348 345 342 334 331 334 336 338 336 332 340 342 341 341 341 343 344 345 344 343 344 345 344 343 342 343 342 341 341 342 343 341 342 347 349
348 348 347 347 347 346 347 346 347 343 340 334 332 335 338 337 338 332 343 343 340 343 343 344 343 345 345 344 344 344 343 341 338 341 339 338 341 341 342 342 341 342 344
347 348 349 349 347 347 347 346 343 337 334 333 338 341 339 339 336 341 346 345 344 344 340 344 344 345 345 346 344 345 344 343 343 343 342 340 339 338 343 343 342 341 339
347 347 348 348 348 349 348 347 344 341 340 337 342 341 342 341 341 345 345 345 345 344 344 342 344 346 346 346 343 345 345 344 344 344 344 343 341 343 344 343 342 339 338
347 347 348 348 348 348 348 348 347 346 342 339 345 344 344 344 344 345 346 346 346 346 345 343 345 346 345 345 345 345 346 345 345 344 344 343 343 342 343 344 344 343 340
347 347 347 348 348 348 348 348 347 346 341 342 342 347 346 345 345 345 346 346 347 347 342 342 345 344 346 345 345 346 346 345 345 345 344 344 345 344 344 345 344 346 345
346 346 346 348 348 348 348 348 348 347 346 345 342 346 346 346 346 346 346 346 347 346 344 344 346 344 341 342 347 345 346 343 342 342 343 343 344 345 346 346 346 346 347
347 347 347 348 348 349 349 349 349 348 348 346 344 346 348 348 347 347 346 347 347 346 345 345 346 345 340 343 346 345 342 341 340 341 338 340 343 342 343 344 345 347 347
347 347 347 348 348 349 348 350 350 349 349 349 348 348 347 348 349 348 349 348 348 346 346 346 346 347 342 338 346 344 339 340 335 335 336 343 342 342 341 342 344 347 347
348 347 347 347 348 349 350 351 351 349 349 349 349 349 346 346 348 349 348 347 348 348 348 347 347 347 346 346 347 345 345 343 338 340 339 342 336 339 344 344 345 345 347
349 349 348 349 349 349 350 352 351 350 349 350 346 348 347 348 349 348 342 342 346 347 345 348 347 349 347 346 343 344 342 342 340 341 343 342 341 338 340 339 343 347 347
350 350 350 350 349 349 350 351 351 350 351 351 349 349 351 351 347 346 336 337 340 345 346 347 344 348 349 345 345 344 345 342 343 343 340 340 339 341 341 340 341 342 346
Wind_Speed
20 21 22 23 23 24 25 27 29 29 30 29 28 26 24 22 20 18 15 15 15 14 15 14 13 13 13 14 17 17 17 16 16 16 16 16 14 14 14 14 14 15 14
27 24 24 23 23 24 25 26 28 28 28 26 25 24 23 20 19 19 19 17 16 15 15 14 14 12 13 15 16 17 17 16 15 14 14 13 12 13 13 12 12 13 13
28 27 26 24 23 23 23 24 24 24 24 24 22 22 21 20 19 18 17 15 14 14 14 15 14 13 12 13 15 15 15 15 14 11 11 13 12 11 11 11 11 11 10
30 28 27 25 23 22 22 22 21 21 20 20 19 18 18 18 18 17 16 14 12 13 13 13 14 13 13 12 12 13 14 12 11 12 11 12 9 9 10 10 10 9 9
30 29 27 25 23 22 21 20 19 18 18 17 16 15 14 14 15 14 13 13 12 11 11 12 11 11 12 12 12 13 12 11 10 9 9 8 8 8 9 8 7 7 7
31 29 26 25 22 20 19 17 16 15 15 14 14 14 13 12 12 12 10 10 10 10 10 9 9 9 9 11 12 12 11 10 8 2 7 9 9 11 11 9 8 7 7
30 27 26 24 21 18 16 15 14 14 13 13 12 11 11 11 10 10 9 8 8 9 8 8 7 6 7 8 11 12 11 9 7 7 9 9 11 11 11 9 6 6 5
31 26 25 23 20 18 16 16 15 15 14 13 12 10 9 9 9 8 7 7 7 7 8 9 8 7 6 6 8 10 8 7 6 7 12 13 12 12 10 9 7 7 8
30 27 25 22 20 18 17 16 16 15 15 12 12 11 9 8 6 6 6 6 7 7 6 6 8 7 7 8 9 10 9 8 5 7 14 18 15 9 9 10 8 7 7
29 28 27 25 23 21 19 16 15 14 13 12 11 10 9 8 6 4 4 5 7 7 7 6 6 7 7 8 8 10 10 10 8 5 9 16 15 10 11 11 9 9 8
24 27 27 25 24 23 20 17 15 13 13 11 10 10 8 6 5 4 4 5 6 7 8 7 6 6 7 7 9 9 8 12 10 11 13 13 19 13 13 12 11 11 11
26 28 29 29 26 24 21 18 17 15 14 12 12 10 9 8 6 6 5 5 10 9 7 8 7 7 6 8 8 9 10 12 12 12 14 15 19 16 15 15 13 13 13
31 29 30 29 28 27 23 22 19 18 17 16 14 11 9 10 9 9 8 9 11 10 10 8 8 8 8 9 9 10 11 12 13 15 14 12 20 18 16 17 15 15 14
29 32 32 30 29 27 25 24 22 22 20 18 15 14 12 15 15 9 8 8 11 9 8 8 7 8 9 10 11 11 11 13 13 16 16 16 18 23 20 20 17 16 16
27 31 33 32 29 27 26 26 24 23 21 18 17 15 15 16 14 14 8 5 8 6 6 7 7 8 8 9 12 12 14 15 15 18 20 21 20 23 20 22 19 17 17
29 32 32 32 30 28 28 27 26 22 19 16 16 15 13 13 13 14 9 10 13 8 8 6 7 9 11 12 13 12 13 16 16 19 19 17 16 18 21 22 21 19 18
32 31 33 31 29 28 27 26 25 22 18 15 13 12 13 13 12 10 8 9 7 7 7 4 6 10 10 11 13 13 13 16 16 18 19 17 18 20 19 22 23 21 19
29 32 31 30 30 29 28 25 24 20 18 15 11 10 9 9 11 9 7 8 6 8 9 8 5 8 10 12 12 13 16 15 16 19 20 21 21 18 16 21 22 21 21
31 31 31 31 30 29 28 23 21 19 16 15 11 10 11 11 12 12 10 9 7 9 8 9 10 8 10 12 13 15 11 14 12 16 18 20 22 22 22 20 22 23 24
31 31 32 31 31 28 26 21 18 18 18 16 16 14 12 13 13 15 15 12 10 10 12 12 13 11 12 9 9 11 10 12 14 15 16 17 19 21 22 22 23 27 27
28 32 32 32 31 27 25 22 20 20 19 18 18 16 16 17 18 18 18 17 15 12 9 9 10 10 13 10 11 13 13 16 17 16 18 20 21 19 20 23 24 25 27
32 34 33 32 30 28 27 24 18 17 16 18 19 19 16 17 18 19 20 19 18 13 9 10 11 13 16 16 5 1 2 6 15 18 19 21 22 21 22 26 23 23 23
28 36 37 34 32 29 28 22 16 13 17 15 19 19 19 21 21 20 19 18 21 18 14 13 14 16 15 11 13 5 1 3 4 4 12 11 10 16 20 22 23 22 23
34 36 39 35 34 30 28 25 23 20 18 19 17 20 18 21 17 18 18 15 16 18 18 14 14 14 13 13 9 13 14 7 3 3 6 14 13 11 12 13 17 21 20
29 35 38 35 34 32 30 29 26 25 21 19 13 14 17 15 15 14 14 18 19 19 16 13 13 11 13 13 13 12 11 11 11 6 3 5 9 11 11 15 14 17 19
23 27 30 33 34 34 33 32 31 28 26 21 16 15 17 16 17 14 5 8 11 15 14 16 16 15 14 14 17 20 18 7 6 8 4 8 9 12 12 19 19 18 20
Wind_Direction
158 148 145 137 131 127 124 124 126 124 123 123 123 122 120 120 121 122 119 121 110 104 107 110 115 115 115 112 107 113 118 118 115 112 113 112 109 110 112 113 117 116 114
152 151 149 141 135 130 129 128 127 125 123 119 119 119 118 114 114 112 110 110 109 107 113 111 115 118 122 118 118 117 116 114 109 108 111 109 114 121 120 118 115 109 107
153 154 151 145 139 135 130 127 127 124 122 122 120 119 117 116 113 108 105 109 111 115 120 119 120 122 124 123 124 124 123 114 113 118 124 123 119 117 115 110 108 107 110
155 157 152 150 145 140 133 130 127 123 120 120 118 116 116 118 115 112 117 115 117 116 117 125 127 127 131 127 123 127 124 123 121 127 127 129 128 127 130 128 126 125 124
156 161 155 155 149 144 140 136 131 127 126 124 119 116 118 119 118 118 122 126 127 125 123 125 132 135 136 135 130 132 133 138 130 127 139 151 150 135 124 118 115 114 121
160 164 159 159 154 149 145 143 140 137 135 130 127 126 127 125 123 125 127 133 134 139 134 133 132 140 141 147 148 148 152 154 165 203 186 173 168 160 156 157 157 162 160
162 163 166 165 162 158 154 150 147 144 143 138 134 136 135 131 130 132 140 148 144 146 150 143 153 147 148 163 169 174 176 177 211 231 217 203 190 176 162 157 160 156 156
161 163 170 172 170 169 167 162 158 155 154 149 148 148 150 143 138 144 150 155 148 152 154 159 172 181 179 179 189 186 181 183 217 241 229 226 199 182 183 177 183 183 189
163 164 170 174 176 175 173 169 163 161 159 159 158 163 158 156 153 155 163 164 156 158 153 165 181 187 194 201 200 190 194 204 246 263 232 219 201 193 196 199 204 204 204
171 171 172 173 172 178 175 172 172 169 166 168 167 169 175 172 170 170 176 188 181 173 164 173 195 199 204 210 219 208 206 213 233 257 203 199 202 205 205 214 210 216 217
174 177 175 174 176 181 181 177 181 176 174 178 180 189 189 183 183 192 213 232 207 194 184 181 205 218 215 221 228 229 225 223 231 226 224 220 219 215 214 222 221 226 229
181 184 181 179 181 185 186 181 188 181 188 198 200 194 190 195 208 193 234 256 220 206 202 194 208 218 221 229 233 226 228 231 235 230 226 229 211 222 219 225 233 233 233
184 184 187 187 189 192 191 191 193 194 200 205 209 205 207 221 232 261 273 260 209 206 201 200 209 223 229 236 233 230 232 233 234 230 226 227 213 226 231 233 237 241 237
183 186 190 193 194 194 197 199 199 203 209 211 213 224 234 248 249 258 275 261 202 210 220 213 213 231 236 238 244 242 244 244 238 234 233 233 230 227 248 234 245 244 241
185 190 194 196 197 199 202 204 207 210 213 223 237 240 252 244 243 241 269 231 191 215 230 233 219 233 234 245 251 258 255 252 246 240 248 244 254 244 243 236 242 245 244
190 193 197 200 202 203 208 210 213 217 225 235 247 252 246 226 234 224 239 227 248 249 256 265 239 239 245 258 264 268 268 262 260 253 252 254 241 246 241 234 237 243 249
195 197 201 201 204 209 213 216 219 225 232 242 251 244 236 234 216 217 243 229 241 259 269 262 258 249 252 258 267 266 270 263 263 255 252 251 249 251 245 244 246 248 248
192 201 205 204 208 214 218 220 223 230 239 247 247 230 217 213 207 220 235 234 252 272 274 263 282 258 264 267 266 268 263 269 260 248 253 256 256 262 255 247 252 252 250
201 203 206 205 213 216 222 224 229 232 236 236 241 233 229 224 222 231 239 245 253 272 276 266 274 268 278 275 271 270 265 256 260 248 253 260 265 267 265 262 261 258 254
205 207 210 209 215 217 220 225 228 232 233 238 242 245 238 230 231 241 246 247 248 256 265 264 268 260 282 282 264 258 250 254 248 243 251 259 262 261 262 260 261 264 258
204 207 209 209 213 211 211 219 225 230 235 234 237 240 242 240 237 238 243 246 242 249 269 267 261 233 259 279 282 271 269 270 255 247 249 255 258 259 258 260 264 262 264
201 208 210 214 213 209 212 213 221 234 239 238 238 241 244 241 241 243 244 240 232 238 244 236 226 222 229 244 257 192 307 277 260 244 249 250 251 252 255 259 261 261 262
200 205 209 212 209 211 210 207 216 239 242 248 242 244 245 245 243 239 246 245 238 234 231 229 225 224 226 231 247 219 215 242 331 263 233 237 245 252 248 250 248 256 263
207 208 210 216 210 210 209 207 209 218 241 249 256 249 258 236 243 246 242 242 232 228 233 232 226 230 233 243 266 238 242 244 211 309 245 243 246 271 256 258 246 247 257
205 208 209 214 216 214 213 214 212 218 227 236 240 243 239 233 231 248 258 241 234 230 236 241 238 237 242 235 257 251 233 238 236 213 279 278 267 267 295 277 267 253 247
206 208 210 212 222 218 219 216 219 222 226 237 237 234 238 242 232 231 230 229 239 234 234 228 233 236 240 234 243 248 242 219 219 216 223 262 269 293 297 307 275 252 247